Date String (YYYY-MM-DD hh:mm:ss) UTC,Instrument flags,absolute air pressure of the measurement (hPa),sample flow rate (lpm),inlet stack bypass flow (lpm),air temperature of the measurement (°C),ambient temperature measured by the external sensor (°C),aerosol sample conditioner tube jacket temperature (°C),OPC LED temperature (°C),internal box temperature (°C),relative humidity of the measurement (%),span deviation,mass concentration of particles derived from Lorenz-Mie calculation of OPC scattering (μg/m³),mass concentration of particles derived from Lorenz-Mie calculation of OPC scattering (μg/m³),mass concentration of particles derived from Lorenz-Mie calculation of OPC scattering (μg/m³)
DateTimeUTC,F1_M11,P_M11,Q1_M11,Q2_M11,T1_M11,T2_M11,T3_M11,T4_M11,T5_M11,U1_M11,ZSPAN_M11,X2_M11,X0_M11,X1_M11
2023-08-12 15:00:00,SystemResetWarning,0833.2,5.00,000.00,029.3,027.3,000.0,037.9,030.9,26.6,0000.0,0004.45,0008.48,0003.78
2023-08-12 15:01:00,SystemResetWarning,0833.2,5.00,000.00,029.3,027.6,000.0,037.9,031.0,26.9,0000.0,0004.41,0007.99,0003.77
2023-08-12 15:02:00,SystemResetWarning,0833.3,5.00,000.00,029.4,027.8,000.0,037.9,031.0,25.8,0000.0,0004.41,0008.04,0003.75
2023-08-12 15:03:00,SystemResetWarning,0833.2,4.99,000.00,029.4,027.9,000.0,037.9,031.1,25.0,0000.0,0004.34,0008.03,0003.72
2023-08-12 15:04:00,SystemResetWarning,0833.2,4.99,000.00,029.4,028.1,000.0,037.9,031.2,26.0,0000.0,0004.27,0007.91,0003.70
2023-08-12 15:05:00,SystemResetWarning,0833.3,5.01,000.00,029.5,028.2,000.0,038.0,031.2,26.7,0000.0,0004.23,0008.01,0003.67
2023-08-12 15:06:00,SystemResetWarning,0833.3,5.01,000.00,029.5,028.3,000.0,038.0,031.2,26.0,0000.0,0004.20,0008.25,0003.64
2023-08-12 15:07:00,SystemResetWarning,0833.3,5.00,000.00,029.5,028.0,000.0,038.0,031.2,25.7,0000.0,0004.19,0008.08,0003.61
2023-08-12 15:08:00,SystemResetWarning,0833.2,4.98,000.00,029.5,026.2,000.0,037.8,030.9,25.1,0000.0,0004.15,0008.16,0003.58
2023-08-12 15:09:00,SystemResetWarning,0833.2,5.01,000.00,029.4,025.0,000.0,037.7,030.6,24.9,0000.0,0004.14,0008.22,0003.56
2023-08-12 15:10:00,SystemResetWarning,0833.2,5.01,000.00,029.3,025.0,000.0,037.6,030.4,26.7,0000.0,0004.11,0008.17,0003.53
2023-08-12 15:11:00,SystemResetWarning,0833.2,5.00,000.00,029.2,025.3,000.0,037.7,030.4,26.5,0000.0,0004.05,0008.03,0003.50
2023-08-12 15:12:00,SystemResetWarning,0833.2,5.00,000.00,029.1,025.8,000.0,037.7,030.5,25.6,0000.0,0004.01,0008.22,0003.46
2023-08-12 15:13:00,SystemResetWarning,0833.2,5.00,000.00,029.1,026.2,000.0,037.7,030.6,24.3,0000.0,0003.95,0008.30,0003.42
2023-08-12 15:14:00,SystemResetWarning,0833.2,5.00,000.00,029.1,026.6,000.0,037.7,030.7,24.2,0000.0,0003.96,0008.85,0003.39
2023-08-12 15:15:00,SystemResetWarning,0833.2,5.00,000.00,029.2,026.9,000.0,037.8,030.8,24.3,0000.0,0003.94,0009.51,0003.36
2023-08-12 15:16:00,SystemResetWarning,0833.2,5.00,000.00,029.2,027.2,000.0,037.8,030.8,24.6,0000.0,0003.88,0009.39,0003.33
2023-08-12 15:17:00,SystemResetWarning,0833.2,5.00,000.00,029.2,027.4,000.0,037.8,030.9,24.0,0000.0,0003.85,0008.96,0003.31
2023-08-12 15:18:00,SystemResetWarning,0833.2,5.00,000.00,029.2,027.6,000.0,037.8,030.9,23.9,0000.0,0003.86,0009.10,0003.30
2023-08-12 15:19:00,SystemResetWarning,0833.2,4.99,000.00,029.3,027.8,000.0,037.8,031.0,24.2,0000.0,0003.84,0009.41,0003.28
2023-08-12 15:20:00,SystemResetWarning,0833.2,5.00,000.00,029.3,028.0,000.0,037.8,031.0,24.7,0000.0,0003.81,0010.69,0003.26
2023-08-12 15:21:00,SystemResetWarning,0833.2,5.00,000.00,029.3,028.1,000.0,037.8,031.1,24.2,0000.0,0003.76,0011.15,0003.25
2023-08-12 15:22:00,SystemResetWarning,0833.2,5.01,000.00,029.4,028.2,000.0,037.9,031.1,25.3,0000.0,0003.77,0011.16,0003.24
2023-08-12 15:23:00,SystemResetWarning,0833.2,5.01,000.00,029.4,028.3,000.0,037.9,031.2,25.1,0000.0,0003.75,0011.02,0003.23
2023-08-12 15:24:00,SystemResetWarning,0833.2,5.00,000.00,029.5,028.4,000.0,037.9,031.2,25.6,0000.0,0003.77,0010.99,0003.23
2023-08-12 15:25:00,SystemResetWarning,0833.2,4.99,000.00,029.5,028.2,000.0,037.9,031.2,25.1,0000.0,0003.76,0010.47,0003.23
2023-08-12 15:26:00,SystemResetWarning,0833.2,4.99,000.00,029.5,026.6,000.0,037.8,030.9,25.0,0000.0,0003.73,0010.00,0003.22
2023-08-12 15:27:00,SystemResetWarning,0833.2,5.00,000.00,029.4,025.2,000.0,037.7,030.6,23.7,0000.0,0003.71,0009.70,0003.20
2023-08-12 15:28:00,SystemResetWarning,0833.2,5.01,000.00,029.3,025.1,000.0,037.6,030.5,24.1,0000.0,0003.70,0009.77,0003.20
2023-08-12 15:29:00,SystemResetWarning,0833.2,5.01,000.00,029.2,025.4,000.0,037.6,030.4,24.1,0000.0,0003.68,0009.79,0003.20
2023-08-12 15:30:00,SystemResetWarning,0833.2,4.99,000.00,029.1,025.8,000.0,037.7,030.5,23.7,0000.0,0003.66,0009.69,0003.19
2023-08-12 15:31:00,SystemResetWarning,0833.2,5.00,000.00,029.1,026.3,000.0,037.7,030.6,24.0,0000.0,0003.65,0008.68,0003.19
2023-08-12 15:32:00,SystemResetWarning,0833.2,5.00,000.00,029.1,026.6,000.0,037.7,030.7,23.5,0000.0,0003.66,0007.70,0003.19
2023-08-12 15:33:00,SystemResetWarning,0833.2,4.99,000.00,029.2,027.0,000.0,037.7,030.8,24.2,0000.0,0003.69,0007.86,0003.21
2023-08-12 15:34:00,SystemResetWarning,0833.2,4.99,000.00,029.2,027.3,000.0,037.7,030.8,25.0,0000.0,0003.70,0007.78,0003.22
2023-08-12 15:35:00,SystemResetWarning,0833.2,5.00,000.00,029.2,027.5,000.0,037.7,030.9,24.4,0000.0,0003.71,0007.82,0003.23
2023-08-12 15:36:00,SystemResetWarning,0833.2,5.00,000.00,029.2,027.7,000.0,037.8,031.0,24.2,0000.0,0003.74,0007.98,0003.24
2023-08-12 15:37:00,SystemResetWarning,0833.2,5.00,000.00,029.3,027.9,000.0,037.8,031.0,24.5,0000.0,0003.79,0008.06,0003.26
2023-08-12 15:38:00,SystemResetWarning,0833.2,5.00,000.00,029.3,028.0,000.0,037.8,031.1,24.2,0000.0,0003.87,0008.03,0003.28
2023-08-12 15:39:00,SystemResetWarning,0833.2,4.99,000.00,029.4,028.1,000.0,037.8,031.1,24.4,0000.0,0003.93,0008.18,0003.30
2023-08-12 15:40:00,SystemResetWarning,0833.2,4.99,000.00,029.4,028.2,000.0,037.8,031.2,25.5,0000.0,0003.94,0008.09,0003.31
2023-08-12 15:41:00,SystemResetWarning,0833.2,5.00,000.00,029.4,028.3,000.0,037.9,031.2,25.6,0000.0,0003.96,0007.91,0003.32
2023-08-12 15:42:00,SystemResetWarning,0833.2,5.00,000.00,029.5,027.6,000.0,037.8,031.1,25.8,0000.0,0004.02,0007.77,0003.34
2023-08-12 15:43:00,SystemResetWarning,0833.2,5.00,000.00,029.4,026.2,000.0,037.7,030.8,25.6,0000.0,0004.06,0007.85,0003.36
2023-08-12 15:44:00,SystemResetWarning,0833.2,5.01,000.00,029.4,026.1,000.0,037.6,030.7,26.2,0000.0,0004.06,0008.88,0003.37
2023-08-12 15:45:00,SystemResetWarning,0833.2,5.01,000.00,029.3,026.3,000.0,037.7,030.7,24.9,0000.0,0004.07,0009.81,0003.37
2023-08-12 15:46:00,SystemResetWarning,0833.2,4.99,000.00,029.3,026.6,000.0,037.7,030.7,26.0,0000.0,0004.05,0009.72,0003.37
2023-08-12 15:47:00,SystemResetWarning,0833.2,5.00,000.00,029.3,026.9,000.0,037.8,030.8,26.3,0000.0,0003.98,0009.44,0003.37
2023-08-12 15:48:00,SystemResetWarning,0833.2,5.00,000.00,029.3,027.2,000.0,037.8,030.9,25.9,0000.0,0003.94,0009.17,0003.37
2023-08-12 15:49:00,SystemResetWarning,0833.2,5.01,000.00,029.3,027.5,000.0,037.8,031.0,25.6,0000.0,0003.90,0009.04,0003.37
2023-08-12 15:50:00,SystemResetWarning,0833.2,5.00,000.00,029.4,027.7,000.0,037.8,031.1,25.8,0000.0,0003.86,0008.90,0003.38
2023-08-12 15:51:00,SystemResetWarning,0833.2,5.00,000.00,029.4,027.9,000.0,037.9,031.1,25.8,0000.0,0003.88,0008.90,0003.38
2023-08-12 15:52:00,SystemResetWarning,0833.2,5.00,000.00,029.4,028.1,000.0,037.9,031.2,25.7,0000.0,0003.89,0008.91,0003.39
2023-08-12 15:53:00,SystemResetWarning,0833.2,5.00,000.00,029.5,028.1,000.0,037.9,031.2,24.7,0000.0,0003.87,0008.85,0003.39
2023-08-12 15:54:00,SystemResetWarning,0833.2,4.98,000.00,029.5,027.0,000.0,037.8,031.0,25.9,0000.0,0003.84,0009.00,0003.39
2023-08-12 15:55:00,SystemResetWarning,0833.2,5.00,000.00,029.4,025.3,000.0,037.6,030.7,24.9,0000.0,0003.87,0008.55,0003.39
2023-08-12 15:56:00,SystemResetWarning,0833.2,5.01,000.00,029.3,025.0,000.0,037.6,030.5,25.3,0000.0,0003.90,0007.68,0003.40
2023-08-12 15:57:00,SystemResetWarning,0833.2,5.01,000.00,029.2,025.3,000.0,037.6,030.4,25.6,0000.0,0003.96,0007.91,0003.42
2023-08-12 15:58:00,SystemResetWarning,0833.2,5.00,000.00,029.1,025.7,000.0,037.6,030.5,25.5,0000.0,0003.97,0007.94,0003.43
2023-08-12 15:59:00,SystemResetWarning,0833.2,4.99,000.00,029.1,026.2,000.0,037.7,030.6,25.0,0000.0,0003.99,0007.99,0003.43
